Back to catalog

STARLINK-37265

AliveCommunicationsSSO
NORAD 69548·PAYLOAD·🇺🇸 United States

Launched Jun 15, 2026 from Vandenberg Space Force Base

Loading…

Next Passes (next 24 hours)

TLE

FreshSource: CelesTrak SupGP

Epoch: Sep 15, 2026, 04:06 UTC

1 69548C 26135C   26258.17131944 -.00055312  00000+0 -17172-2 0  2587
2 69548  97.2833 285.8804 0001279  88.7799 137.9389 15.33464897    19

Track STARLINK-37265 in real time with AllMySat

Download on the App Store